{"data":{"norad_id":58775,"intl_designator":"2024-011L","name":"STARLINK-31123","alt_names":[],"object_type":"PAYLOAD","status":"ACTIVE","operator":null,"country":"US","launch_date":"2024-01-14","launch_site_code":"AFWTR","launch_vehicle":null,"mission":null,"orbit_class":"UNKNOWN","rcs_meters":null,"size_class":null,"mass_kg":null,"dimensions":null,"purposes":["comms"],"wikipedia_slug":null,"has_3d_model":false,"image_url":null,"decayed_at":null,"tle_current":{"epoch":"2026-05-25T01:11:45.062304Z","epoch_age_seconds":74697,"freshness":"FRESH","line1":"1 58775U 24011L   26145.04982711  .00002282  00000+0  89185-4 0  9998","line2":"2 58775  53.1616  18.8255 0001283  92.4291 267.6857 15.30186207131960","mean_motion":15.30186207,"eccentricity":0.0001283,"inclination_deg":53.1616,"raan_deg":18.8255,"arg_perigee_deg":92.4291,"mean_anomaly_deg":267.6857,"bstar":8.9185e-5,"rev_number":13196,"period_min":94.106193965974,"perigee_km":474.37696278609,"apogee_km":476.13554349485,"semimajor_km":6853.3932531405,"source":"CELESTRAK","updated_at":"2026-05-25T13:38:18.746032Z"}}}